Station Historical Data
Daily Summary for October 16, 2017 Units:  English    Metric   Both
« Previous Day
Next Day »
Daily Weekly Monthly Yearly Custom
  High: Low: Average:
Temperature: 79.4 °F 58.4 °F 65.9 °F
Dew Point: 36.8 °F 17.8 °F 27.5 °F
Humidity: 33 % 14 % 24 %
Wind Speed: 11.0 mph 0.0 mph 2.4 mph
Wind Gust: 15.0 mph - -
Wind:- - ESE
Pressure: 30.21 in 30.09 in -
Precipitation: 0.00 in    
Historical Graphs
 
 
Tabular Data for October 16, 2017
Time Temperature Dew Point Pressure Wind Wind Speed Wind Gust Humidity Rainfall Rate (Hourly) solar
00:00 60.3 °F 27.1 °F 30.19 in East 8.0 mph 12.0 mph 28 % 0.00 in 0.00 W/m2
00:05 60.2 °F 27.0 °F 30.19 in East 2.0 mph 9.0 mph 28 % 0.00 in 0.00 W/m2
00:10 60.2 °F 27.0 °F 30.19 in East 2.0 mph 9.0 mph 28 % 0.00 in 0.00 W/m2
00:15 60.1 °F 26.9 °F 30.19 in East 4.0 mph 11.0 mph 28 % 0.00 in 0.00 W/m2
00:16 60.0 °F 26.8 °F 30.19 in ESE 6.0 mph 9.0 mph 28 % 0.00 in 0.00 W/m2
00:21 60.0 °F 26.8 °F 30.19 in ESE 5.0 mph 5.0 mph 28 % 0.00 in 0.00 W/m2
00:26 59.9 °F 26.7 °F 30.19 in East 7.0 mph 8.0 mph 28 % 0.00 in 0.00 W/m2
00:31 59.8 °F 25.8 °F 30.19 in East 5.0 mph 7.0 mph 27 % 0.00 in 0.00 W/m2
00:36 59.8 °F 25.8 °F 30.19 in East 2.0 mph 9.0 mph 27 % 0.00 in 0.00 W/m2
00:41 59.8 °F 26.6 °F 30.19 in East 5.0 mph 9.0 mph 28 % 0.00 in 0.00 W/m2
00:46 59.8 °F 25.8 °F 30.19 in East 7.0 mph 7.0 mph 27 % 0.00 in 0.00 W/m2
00:51 59.8 °F 25.8 °F 30.19 in ESE 5.0 mph 6.0 mph 27 % 0.00 in 0.00 W/m2
00:56 59.8 °F 25.8 °F 30.19 in ESE 2.0 mph 9.0 mph 27 % 0.00 in 0.00 W/m2
01:01 59.8 °F 25.8 °F 30.19 in ESE 1.0 mph 7.0 mph 27 % 0.00 in 0.00 W/m2
01:06 59.8 °F 25.8 °F 30.19 in East 1.0 mph 9.0 mph 27 % 0.00 in 0.00 W/m2
01:11 59.8 °F 25.8 °F 30.19 in ESE 4.0 mph 8.0 mph 27 % 0.00 in 0.00 W/m2
01:16 59.7 °F 25.7 °F 30.19 in ESE 7.0 mph 7.0 mph 27 % 0.00 in 0.00 W/m2
01:21 59.6 °F 25.6 °F 30.19 in East 6.0 mph 9.0 mph 27 % 0.00 in 0.00 W/m2
01:26 59.6 °F 25.6 °F 30.19 in East 2.0 mph 7.0 mph 27 % 0.00 in 0.00 W/m2
01:31 59.5 °F 24.6 °F 30.19 in ESE 2.0 mph 12.0 mph 26 % 0.00 in 0.00 W/m2
01:36 59.5 °F 24.6 °F 30.19 in East 5.0 mph 9.0 mph 26 % 0.00 in 0.00 W/m2
01:41 59.4 °F 24.5 °F 30.19 in East 7.0 mph 8.0 mph 26 % 0.00 in 0.00 W/m2
01:46 59.4 °F 24.5 °F 30.19 in ESE 1.0 mph 9.0 mph 26 % 0.00 in 0.00 W/m2
01:51 59.4 °F 23.6 °F 30.19 in ESE 4.0 mph 7.0 mph 25 % 0.00 in 0.00 W/m2
01:56 59.4 °F 24.5 °F 30.19 in Calm   7.0 mph 26 % 0.00 in 0.00 W/m2
02:01 59.4 °F 23.6 °F 30.19 in ESE 1.0 mph 6.0 mph 25 % 0.00 in 0.00 W/m2
02:06 59.5 °F 23.7 °F 30.19 in ESE 2.0 mph 7.0 mph 25 % 0.00 in 0.00 W/m2
02:11 59.5 °F 23.7 °F 30.19 in East 8.0 mph 8.0 mph 25 % 0.00 in 0.00 W/m2
02:16 59.5 °F 24.6 °F 30.19 in ESE 1.0 mph 6.0 mph 26 % 0.00 in 0.00 W/m2
02:21 59.4 °F 24.5 °F 30.19 in Calm   5.0 mph 26 % 0.00 in 0.00 W/m2
02:26 59.4 °F 24.5 °F 30.19 in ESE 6.0 mph 8.0 mph 26 % 0.00 in 0.00 W/m2
02:31 59.3 °F 23.5 °F 30.19 in ESE 2.0 mph 5.0 mph 25 % 0.00 in 0.00 W/m2
02:36 59.3 °F 24.4 °F 30.19 in ESE 4.0 mph 7.0 mph 26 % 0.00 in 0.00 W/m2
02:41 59.2 °F 24.4 °F 30.19 in East 4.0 mph 9.0 mph 26 % 0.00 in 0.00 W/m2
02:46 59.2 °F 24.4 °F 30.19 in East 2.0 mph 6.0 mph 26 % 0.00 in 0.00 W/m2
02:51 59.1 °F 23.3 °F 30.19 in East 7.0 mph 8.0 mph 25 % 0.00 in 0.00 W/m2
02:56 59.0 °F 23.2 °F 30.18 in East 7.0 mph 11.0 mph 25 % 0.00 in 0.00 W/m2
03:01 58.9 °F 24.1 °F 30.18 in East 5.0 mph 9.0 mph 26 % 0.00 in 0.00 W/m2
03:06 58.8 °F 23.1 °F 30.18 in East 9.0 mph 13.0 mph 25 % 0.00 in 0.00 W/m2
03:12 58.7 °F 23.0 °F 30.18 in East 1.0 mph 11.0 mph 25 % 0.00 in 0.00 W/m2
03:17 58.7 °F 23.0 °F 30.18 in East 2.0 mph 11.0 mph 25 % 0.00 in 0.00 W/m2
03:22 58.6 °F 22.9 °F 30.17 in East 5.0 mph 7.0 mph 25 % 0.00 in 0.00 W/m2
03:27 58.5 °F 22.8 °F 30.17 in East 1.0 mph 8.0 mph 25 % 0.00 in 0.00 W/m2
03:32 58.4 °F 22.7 °F 30.17 in East 2.0 mph 6.0 mph 25 % 0.00 in 0.00 W/m2
03:37 58.4 °F 22.7 °F 30.17 in East 9.0 mph 11.0 mph 25 % 0.00 in 0.00 W/m2
03:42 58.4 °F 21.8 °F 30.17 in East 5.0 mph 7.0 mph 24 % 0.00 in 0.00 W/m2
03:47 58.4 °F 21.8 °F 30.17 in East 1.0 mph 8.0 mph 24 % 0.00 in 0.00 W/m2
03:52 58.4 °F 21.8 °F 30.17 in East 6.0 mph 13.0 mph 24 % 0.00 in 0.00 W/m2
03:57 58.5 °F 21.9 °F 30.17 in Calm   9.0 mph 24 % 0.00 in 0.00 W/m2
04:02 58.6 °F 21.9 °F 30.17 in East 5.0 mph 9.0 mph 24 % 0.00 in 0.00 W/m2
04:07 58.6 °F 21.9 °F 30.17 in East 2.0 mph 8.0 mph 24 % 0.00 in 0.00 W/m2
04:12 58.7 °F 21.0 °F 30.17 in East 4.0 mph 6.0 mph 23 % 0.00 in 0.00 W/m2
04:17 58.7 °F 21.0 °F 30.17 in ESE 8.0 mph 12.0 mph 23 % 0.00 in 0.00 W/m2
04:22 58.7 °F 21.0 °F 30.17 in East 6.0 mph 9.0 mph 23 % 0.00 in 0.00 W/m2
04:27 58.8 °F 21.1 °F 30.17 in East 7.0 mph 8.0 mph 23 % 0.00 in 0.00 W/m2
04:32 58.8 °F 21.1 °F 30.17 in East 2.0 mph 9.0 mph 23 % 0.00 in 0.00 W/m2
04:37 58.8 °F 21.1 °F 30.17 in East 1.0 mph 11.0 mph 23 % 0.00 in 0.00 W/m2
04:39 58.8 °F 21.1 °F 30.17 in ESE 4.0 mph 13.0 mph 23 % 0.00 in 0.00 W/m2
04:44 58.8 °F 21.1 °F 30.17 in ESE 5.0 mph 12.0 mph 23 % 0.00 in 0.00 W/m2
04:49 58.8 °F 21.1 °F 30.17 in ESE 5.0 mph 12.0 mph 23 % 0.00 in 0.00 W/m2
04:51 58.7 °F 20.0 °F 30.17 in ESE 2.0 mph 8.0 mph 22 % 0.00 in 0.00 W/m2
04:56 58.7 °F 20.0 °F 30.17 in ESE 4.0 mph 4.0 mph 22 % 0.00 in 0.00 W/m2
05:02 58.7 °F 18.9 °F 30.17 in East 6.0 mph 8.0 mph 21 % 0.00 in 0.00 W/m2
05:07 58.7 °F 20.0 °F 30.17 in East 2.0 mph 8.0 mph 22 % 0.00 in 0.00 W/m2
05:12 58.7 °F 18.9 °F 30.17 in Calm   9.0 mph 21 % 0.00 in 0.00 W/m2
05:17 58.7 °F 20.0 °F 30.17 in Calm   6.0 mph 22 % 0.00 in 0.00 W/m2
05:22 58.7 °F 20.0 °F 30.17 in East 6.0 mph 9.0 mph 22 % 0.00 in 0.00 W/m2
05:27 58.7 °F 20.0 °F 30.17 in East 1.0 mph 13.0 mph 22 % 0.00 in 0.00 W/m2
05:32 58.6 °F 18.8 °F 30.17 in Calm   7.0 mph 21 % 0.00 in 0.00 W/m2
05:37 58.6 °F 18.8 °F 30.17 in East 5.0 mph 8.0 mph 21 % 0.00 in 0.00 W/m2
05:42 58.6 °F 18.8 °F 30.17 in East 9.0 mph 9.0 mph 21 % 0.00 in 0.00 W/m2
05:47 58.6 °F 18.8 °F 30.17 in ESE 1.0 mph 7.0 mph 21 % 0.00 in 0.00 W/m2
05:52 58.7 °F 18.9 °F 30.18 in East 4.0 mph 9.0 mph 21 % 0.00 in 0.00 W/m2
05:57 58.7 °F 17.8 °F 30.18 in East 2.0 mph 7.0 mph 20 % 0.00 in 0.00 W/m2
06:02 58.7 °F 18.9 °F 30.18 in East 5.0 mph 6.0 mph 21 % 0.00 in 0.00 W/m2
06:07 58.8 °F 19.0 °F 30.18 in East 7.0 mph 7.0 mph 21 % 0.00 in 0.00 W/m2
06:12 58.8 °F 19.0 °F 30.17 in East 4.0 mph 9.0 mph 21 % 0.00 in 0.00 W/m2
06:17 58.8 °F 19.0 °F 30.18 in Calm   7.0 mph 21 % 0.00 in 0.00 W/m2
06:22 58.8 °F 19.0 °F 30.18 in East 5.0 mph 7.0 mph 21 % 0.00 in 0.00 W/m2
06:27 58.8 °F 17.8 °F 30.18 in ESE 4.0 mph 7.0 mph 20 % 0.00 in 0.00 W/m2
06:32 58.8 °F 19.0 °F 30.18 in Calm   9.0 mph 21 % 0.00 in 0.00 W/m2
06:37 58.8 °F 19.0 °F 30.18 in East 1.0 mph 9.0 mph 21 % 0.00 in 0.00 W/m2
06:42 58.8 °F 19.0 °F 30.18 in East 2.0 mph 5.0 mph 21 % 0.00 in 0.00 W/m2
06:47 58.8 °F 19.0 °F 30.18 in East 7.0 mph 7.0 mph 21 % 0.00 in 0.00 W/m2
06:52 58.8 °F 19.0 °F 30.18 in East 1.0 mph 7.0 mph 21 % 0.00 in 0.00 W/m2
06:57 58.8 °F 19.0 °F 30.18 in East 7.0 mph 7.0 mph 21 % 0.00 in 0.00 W/m2
07:02 58.8 °F 19.0 °F 30.18 in ESE 5.0 mph 8.0 mph 21 % 0.00 in 0.00 W/m2
07:07 58.8 °F 19.0 °F 30.18 in East 1.0 mph 11.0 mph 21 % 0.00 in 0.00 W/m2
07:12 58.8 °F 19.0 °F 30.18 in East 2.0 mph 11.0 mph 21 % 0.00 in 5.00 W/m2
07:17 58.8 °F 19.0 °F 30.18 in East 4.0 mph 12.0 mph 21 % 0.00 in 7.00 W/m2
07:22 58.8 °F 19.0 °F 30.19 in East 7.0 mph 11.0 mph 21 % 0.00 in 11.00 W/m2
07:27 58.8 °F 19.0 °F 30.19 in ESE 1.0 mph 9.0 mph 21 % 0.00 in 14.00 W/m2
07:32 58.9 °F 19.1 °F 30.19 in ESE 1.0 mph 12.0 mph 21 % 0.00 in 18.00 W/m2
07:37 58.9 °F 19.1 °F 30.19 in Calm   13.0 mph 21 % 0.00 in 23.00 W/m2
07:42 59.0 °F 19.1 °F 30.19 in East 5.0 mph 12.0 mph 21 % 0.00 in 30.00 W/m2
07:47 59.0 °F 19.1 °F 30.19 in East 5.0 mph 12.0 mph 21 % 0.00 in 44.00 W/m2
07:52 59.1 °F 19.2 °F 30.19 in ESE 4.0 mph 14.0 mph 21 % 0.00 in 62.00 W/m2
07:57 59.2 °F 19.3 °F 30.19 in ESE 5.0 mph 11.0 mph 21 % 0.00 in 77.00 W/m2
08:02 59.3 °F 19.4 °F 30.19 in East 6.0 mph 11.0 mph 21 % 0.00 in 98.00 W/m2
08:07 59.4 °F 20.6 °F 30.19 in ESE 5.0 mph 13.0 mph 22 % 0.00 in 116.00 W/m2
08:12 59.5 °F 20.6 °F 30.19 in ESE 7.0 mph 11.0 mph 22 % 0.00 in 134.00 W/m2
08:17 59.6 °F 20.7 °F 30.19 in ESE 1.0 mph 15.0 mph 22 % 0.00 in 155.00 W/m2
08:22 59.7 °F 20.8 °F 30.19 in East 2.0 mph 12.0 mph 22 % 0.00 in 100.00 W/m2
08:28 59.8 °F 20.9 °F 30.20 in ESE 5.0 mph 14.0 mph 22 % 0.00 in 155.00 W/m2
08:33 60.0 °F 22.1 °F 30.20 in East 6.0 mph 13.0 mph 23 % 0.00 in 186.00 W/m2
08:38 60.1 °F 22.2 °F 30.20 in East 7.0 mph 8.0 mph 23 % 0.00 in 246.00 W/m2
08:43 60.3 °F 22.4 °F 30.20 in Calm   9.0 mph 23 % 0.00 in 190.00 W/m2
08:48 60.4 °F 22.5 °F 30.20 in ESE 6.0 mph 13.0 mph 23 % 0.00 in 156.00 W/m2
08:53 60.7 °F 22.7 °F 30.20 in Calm   9.0 mph 23 % 0.00 in 221.00 W/m2
08:58 60.8 °F 22.8 °F 30.20 in Calm   11.0 mph 23 % 0.00 in 313.00 W/m2
09:03 61.0 °F 23.0 °F 30.20 in East 4.0 mph 9.0 mph 23 % 0.00 in 269.00 W/m2
09:08 61.2 °F 23.1 °F 30.20 in Calm   9.0 mph 23 % 0.00 in 346.00 W/m2
09:13 61.4 °F 24.3 °F 30.21 in Calm   6.0 mph 24 % 0.00 in 221.00 W/m2
09:18 61.7 °F 24.6 °F 30.21 in Calm   8.0 mph 24 % 0.00 in 316.00 W/m2
09:23 62.0 °F 24.8 °F 30.20 in East 6.0 mph 9.0 mph 24 % 0.00 in 343.00 W/m2
09:28 62.3 °F 25.1 °F 30.21 in Calm   8.0 mph 24 % 0.00 in 316.00 W/m2
09:33 62.6 °F 25.3 °F 30.21 in ESE 8.0 mph 12.0 mph 24 % 0.00 in 339.00 W/m2
09:38 62.9 °F 26.6 °F 30.20 in ESE 1.0 mph 9.0 mph 25 % 0.00 in 420.00 W/m2
09:43 63.3 °F 25.9 °F 30.20 in ESE 5.0 mph 12.0 mph 24 % 0.00 in 399.00 W/m2
09:48 63.6 °F 26.2 °F 30.21 in ESE 2.0 mph 11.0 mph 24 % 0.00 in 410.00 W/m2
09:53 64.0 °F 26.5 °F 30.21 in ESE 1.0 mph 9.0 mph 24 % 0.00 in 376.00 W/m2
09:58 64.4 °F 26.9 °F 30.20 in Calm   7.0 mph 24 % 0.00 in 359.00 W/m2
10:03 64.8 °F 26.2 °F 30.21 in ESE 7.0 mph 12.0 mph 23 % 0.00 in 439.00 W/m2
10:08 65.1 °F 26.4 °F 30.21 in ESE 6.0 mph 11.0 mph 23 % 0.00 in 232.00 W/m2
10:13 65.5 °F 26.8 °F 30.20 in Calm   7.0 mph 23 % 0.00 in 272.00 W/m2
10:18 65.9 °F 28.1 °F 30.20 in ESE 6.0 mph 9.0 mph 24 % 0.00 in 285.00 W/m2
10:23 66.3 °F 27.4 °F 30.21 in ESE 4.0 mph 8.0 mph 23 % 0.00 in 213.00 W/m2
10:28 66.6 °F 28.7 °F 30.21 in Calm   4.0 mph 24 % 0.00 in 587.00 W/m2
10:33 66.9 °F 29.0 °F 30.20 in Calm     24 % 0.00 in 543.00 W/m2
10:38 67.3 °F 30.3 °F 30.21 in Calm   8.0 mph 25 % 0.00 in 571.00 W/m2
10:43 67.6 °F 30.6 °F 30.20 in ESE 1.0 mph 9.0 mph 25 % 0.00 in 635.00 W/m2
10:48 68.0 °F 30.9 °F 30.20 in ESE 6.0 mph 7.0 mph 25 % 0.00 in 647.00 W/m2
10:53 68.4 °F 31.2 °F 30.20 in Calm   4.0 mph 25 % 0.00 in 656.00 W/m2
10:58 68.9 °F 30.6 °F 30.20 in Calm   7.0 mph 24 % 0.00 in 635.00 W/m2
11:03 69.4 °F 31.1 °F 30.20 in ESE 2.0 mph 7.0 mph 24 % 0.00 in 649.00 W/m2
11:08 69.9 °F 25.8 °F 30.20 in Calm   4.0 mph 19 % 0.00 in 547.00 W/m2
11:13 70.4 °F 27.5 °F 30.20 in Calm   6.0 mph 20 % 0.00 in 568.00 W/m2
11:18 70.9 °F 26.6 °F 30.19 in Calm   5.0 mph 19 % 0.00 in 497.00 W/m2
11:23 71.5 °F 29.5 °F 30.19 in Calm     21 % 0.00 in 715.00 W/m2
11:28 72.2 °F 27.7 °F 30.19 in Calm   5.0 mph 19 % 0.00 in 671.00 W/m2
11:33 73.0 °F 28.3 °F 30.19 in Calm   1.0 mph 19 % 0.00 in 661.00 W/m2
11:38 73.5 °F 28.8 °F 30.19 in Calm   2.0 mph 19 % 0.00 in 656.00 W/m2
11:44 74.1 °F 27.9 °F 30.19 in ESE 4.0 mph 5.0 mph 18 % 0.00 in 700.00 W/m2
11:49 74.5 °F 29.6 °F 30.19 in ESE 4.0 mph 6.0 mph 19 % 0.00 in 747.00 W/m2
11:54 74.9 °F 28.6 °F 30.19 in ESE 1.0 mph 6.0 mph 18 % 0.00 in 686.00 W/m2
11:59 75.2 °F 27.4 °F 30.18 in ESE 7.0 mph 8.0 mph 17 % 0.00 in 606.00 W/m2
12:04 75.5 °F 27.7 °F 30.18 in Calm   6.0 mph 17 % 0.00 in 443.00 W/m2
12:09 75.8 °F 27.9 °F 30.18 in Calm   1.0 mph 17 % 0.00 in 573.00 W/m2
12:14 76.0 °F 29.5 °F 30.18 in Calm   6.0 mph 18 % 0.00 in 563.00 W/m2
12:19 76.1 °F 28.2 °F 30.18 in Calm   1.0 mph 17 % 0.00 in 529.00 W/m2
12:24 76.2 °F 31.0 °F 30.17 in SSE 7.0 mph 7.0 mph 19 % 0.00 in 427.00 W/m2
12:29 76.2 °F 31.0 °F 30.17 in SSE 6.0 mph 7.0 mph 19 % 0.00 in 643.00 W/m2
12:34 76.2 °F 31.0 °F 30.17 in Calm   6.0 mph 19 % 0.00 in 578.00 W/m2
12:39 76.3 °F 29.7 °F 30.17 in Calm   6.0 mph 18 % 0.00 in 661.00 W/m2
12:44 76.4 °F 28.4 °F 30.17 in South 5.0 mph 6.0 mph 17 % 0.00 in 608.00 W/m2
12:49 76.5 °F 28.5 °F 30.16 in Calm   5.0 mph 17 % 0.00 in 763.00 W/m2
12:54 76.7 °F 27.2 °F 30.16 in SSW 3.0 mph 5.0 mph 16 % 0.00 in 561.00 W/m2
12:59 76.9 °F 28.8 °F 30.16 in SSW 3.0 mph 5.0 mph 17 % 0.00 in 490.00 W/m2
13:04 76.9 °F 28.8 °F 30.16 in Calm   5.0 mph 17 % 0.00 in 680.00 W/m2
13:09 77.2 °F 29.0 °F 30.15 in Calm   4.0 mph 17 % 0.00 in 751.00 W/m2
13:14 77.3 °F 29.1 °F 30.15 in SSW 1.0 mph 6.0 mph 17 % 0.00 in 738.00 W/m2
13:19 77.5 °F 29.3 °F 30.15 in SSW 3.0 mph 4.0 mph 17 % 0.00 in 722.00 W/m2
13:24 77.7 °F 28.0 °F 30.15 in Calm   4.0 mph 16 % 0.00 in 708.00 W/m2
13:29 78.0 °F 26.6 °F 30.15 in Calm   7.0 mph 15 % 0.00 in 707.00 W/m2
13:34 78.2 °F 26.8 °F 30.14 in Calm   2.0 mph 15 % 0.00 in 550.00 W/m2
13:39 78.4 °F 27.0 °F 30.14 in SSW 2.0 mph 4.0 mph 15 % 0.00 in 698.00 W/m2
13:44 78.5 °F 27.0 °F 30.14 in SSW 4.0 mph 6.0 mph 15 % 0.00 in 656.00 W/m2
13:49 78.7 °F 27.2 °F 30.14 in SSW 3.0 mph 5.0 mph 15 % 0.00 in 568.00 W/m2
13:54 78.9 °F 27.4 °F 30.14 in SSW 1.0 mph 5.0 mph 15 % 0.00 in 656.00 W/m2
13:59 79.1 °F 25.9 °F 30.14 in Calm   6.0 mph 14 % 0.00 in 679.00 W/m2
14:04 79.3 °F 27.7 °F 30.13 in Calm   7.0 mph 15 % 0.00 in 670.00 W/m2
14:09 79.3 °F 27.7 °F 30.13 in WSW 3.0 mph 7.0 mph 15 % 0.00 in 575.00 W/m2
14:14 79.3 °F 26.0 °F 30.13 in West 7.0 mph 8.0 mph 14 % 0.00 in 497.00 W/m2
14:19 79.3 °F 27.7 °F 30.13 in Calm   5.0 mph 15 % 0.00 in 504.00 W/m2
14:24 79.2 °F 27.6 °F 30.13 in Calm   1.0 mph 15 % 0.00 in 650.00 W/m2
14:30 79.2 °F 25.9 °F 30.13 in WSW 2.0 mph 2.0 mph 14 % 0.00 in 629.00 W/m2
14:31 79.2 °F 25.9 °F 30.13 in Calm     14 % 0.00 in 613.00 W/m2
14:36 79.3 °F 27.7 °F 30.12 in Calm     15 % 0.00 in 635.00 W/m2
14:41 79.3 °F 26.0 °F 30.12 in Calm     14 % 0.00 in 629.00 W/m2
14:46 79.3 °F 27.7 °F 30.12 in SW 3.0 mph 5.0 mph 15 % 0.00 in 501.00 W/m2
14:51 79.4 °F 26.1 °F 30.12 in Calm     14 % 0.00 in 353.00 W/m2
14:56 79.4 °F 26.1 °F 30.12 in Calm     14 % 0.00 in 417.00 W/m2
15:01 79.3 °F 29.3 °F 30.12 in SW 2.0 mph 2.0 mph 16 % 0.00 in 299.00 W/m2
15:06 79.0 °F 29.0 °F 30.12 in Calm     16 % 0.00 in 318.00 W/m2
15:11 78.6 °F 30.2 °F 30.12 in Calm   3.0 mph 17 % 0.00 in 283.00 W/m2
15:16 78.3 °F 31.4 °F 30.12 in Calm     18 % 0.00 in 357.00 W/m2
15:21 78.0 °F 32.4 °F 30.12 in Calm     19 % 0.00 in 304.00 W/m2
15:26 77.8 °F 30.9 °F 30.12 in WSW 3.0 mph 6.0 mph 18 % 0.00 in 232.00 W/m2
15:31 77.8 °F 33.6 °F 30.12 in Calm   1.0 mph 20 % 0.00 in 225.00 W/m2
15:36 77.5 °F 33.3 °F 30.12 in Calm     20 % 0.00 in 257.00 W/m2
15:41 77.2 °F 35.5 °F 30.12 in Calm     22 % 0.00 in 230.00 W/m2
15:46 76.9 °F 34.0 °F 30.12 in Calm     21 % 0.00 in 207.00 W/m2
15:51 76.7 °F 33.9 °F 30.12 in Calm     21 % 0.00 in 216.00 W/m2
15:56 76.6 °F 35.0 °F 30.12 in Calm   3.0 mph 22 % 0.00 in 272.00 W/m2
16:01 76.5 °F 33.7 °F 30.12 in Calm     21 % 0.00 in 297.00 W/m2
16:06 76.3 °F 33.5 °F 30.12 in Calm     21 % 0.00 in 413.00 W/m2
16:11 76.3 °F 34.7 °F 30.11 in Calm     22 % 0.00 in 302.00 W/m2
16:16 76.2 °F 33.5 °F 30.11 in Calm     21 % 0.00 in 343.00 W/m2
16:21 76.0 °F 33.3 °F 30.12 in Calm     21 % 0.00 in 295.00 W/m2
16:26 75.9 °F 33.2 °F 30.11 in Calm     21 % 0.00 in 288.00 W/m2
16:31 75.8 °F 34.3 °F 30.11 in Calm     22 % 0.00 in 220.00 W/m2
16:36 75.7 °F 34.2 °F 30.11 in Calm     22 % 0.00 in 271.00 W/m2
16:41 75.5 °F 31.7 °F 30.11 in Calm     20 % 0.00 in 225.00 W/m2
16:46 75.4 °F 32.8 °F 30.11 in Calm     21 % 0.00 in 188.00 W/m2
16:51 75.3 °F 33.9 °F 30.10 in Calm     22 % 0.00 in 213.00 W/m2
16:57 75.1 °F 34.8 °F 30.10 in Calm     23 % 0.00 in 220.00 W/m2
17:02 75.0 °F 33.6 °F 30.10 in Calm     22 % 0.00 in 190.00 W/m2
17:07 74.9 °F 34.6 °F 30.10 in Calm     23 % 0.00 in 176.00 W/m2
17:12 74.8 °F 34.6 °F 30.10 in Calm     23 % 0.00 in 139.00 W/m2
17:17 74.7 °F 34.5 °F 30.10 in Calm     23 % 0.00 in 146.00 W/m2
17:22 74.6 °F 35.5 °F 30.10 in Calm     24 % 0.00 in 109.00 W/m2
17:27 74.2 °F 36.2 °F 30.10 in Calm     25 % 0.00 in 111.00 W/m2
17:32 73.8 °F 35.8 °F 30.10 in Calm     25 % 0.00 in 83.00 W/m2
17:37 73.5 °F 35.6 °F 30.10 in Calm     25 % 0.00 in 63.00 W/m2
17:42 73.2 °F 36.3 °F 30.10 in Calm     26 % 0.00 in 77.00 W/m2
17:47 72.8 °F 36.0 °F 30.10 in Calm     26 % 0.00 in 54.00 W/m2
17:52 72.3 °F 36.5 °F 30.09 in Calm     27 % 0.00 in 42.00 W/m2
17:57 71.8 °F 36.0 °F 30.09 in Calm     27 % 0.00 in 37.00 W/m2
18:02 71.3 °F 36.5 °F 30.09 in Calm     28 % 0.00 in 33.00 W/m2
18:07 70.6 °F 36.8 °F 30.09 in Calm     29 % 0.00 in 25.00 W/m2
18:12 70.3 °F 36.6 °F 30.09 in Calm     29 % 0.00 in 18.00 W/m2
18:17 69.8 °F 36.1 °F 30.09 in Calm     29 % 0.00 in 11.00 W/m2
18:22 69.2 °F 36.5 °F 30.09 in Calm     30 % 0.00 in 7.00 W/m2
18:27 68.6 °F 35.1 °F 30.09 in Calm     29 % 0.00 in 0.00 W/m2
18:32 68.0 °F 34.6 °F 30.09 in Calm     29 % 0.00 in 0.00 W/m2
18:37 67.5 °F 34.2 °F 30.09 in Calm     29 % 0.00 in 0.00 W/m2
18:42 67.0 °F 33.7 °F 30.09 in Calm     29 % 0.00 in 0.00 W/m2
18:47 66.6 °F 33.4 °F 30.10 in Calm     29 % 0.00 in 0.00 W/m2
18:52 66.3 °F 33.1 °F 30.09 in Calm     29 % 0.00 in 0.00 W/m2
18:57 66.1 °F 33.0 °F 30.09 in Calm     29 % 0.00 in 0.00 W/m2
19:02 65.8 °F 32.7 °F 30.09 in Calm     29 % 0.00 in 0.00 W/m2
19:07 65.5 °F 32.4 °F 30.10 in Calm     29 % 0.00 in 0.00 W/m2
19:12 65.3 °F 32.3 °F 30.10 in Calm     29 % 0.00 in 0.00 W/m2
19:17 65.1 °F 31.2 °F 30.10 in Calm     28 % 0.00 in 0.00 W/m2
19:22 65.0 °F 31.1 °F 30.10 in Calm     28 % 0.00 in 0.00 W/m2
19:27 64.9 °F 31.0 °F 30.10 in Calm     28 % 0.00 in 0.00 W/m2
19:32 64.7 °F 31.7 °F 30.10 in Calm     29 % 0.00 in 0.00 W/m2
19:37 64.6 °F 31.6 °F 30.10 in Calm     29 % 0.00 in 0.00 W/m2
19:42 64.5 °F 30.7 °F 30.10 in Calm     28 % 0.00 in 0.00 W/m2
19:47 64.5 °F 31.6 °F 30.10 in Calm     29 % 0.00 in 0.00 W/m2
19:52 64.4 °F 31.5 °F 30.11 in Calm     29 % 0.00 in 0.00 W/m2
19:57 64.4 °F 31.5 °F 30.11 in Calm     29 % 0.00 in 0.00 W/m2
20:02 64.2 °F 31.3 °F 30.11 in Calm     29 % 0.00 in 0.00 W/m2
20:07 64.1 °F 31.2 °F 30.11 in Calm     29 % 0.00 in 0.00 W/m2
20:12 64.0 °F 32.0 °F 30.11 in Calm     30 % 0.00 in 0.00 W/m2
20:19 63.9 °F 31.9 °F 30.11 in Calm     30 % 0.00 in 0.00 W/m2
20:21 63.8 °F 31.8 °F 30.11 in Calm     30 % 0.00 in 0.00 W/m2
20:24 63.8 °F 31.8 °F 30.11 in SW 5.0 mph 5.0 mph 30 % 0.00 in 0.00 W/m2
20:28 63.8 °F 32.6 °F 30.11 in South 1.0 mph 5.0 mph 31 % 0.00 in 0.00 W/m2
20:29 63.8 °F 32.6 °F 30.11 in South 4.0 mph 5.0 mph 31 % 0.00 in 0.00 W/m2
20:34 63.8 °F 32.6 °F 30.11 in Calm   6.0 mph 31 % 0.00 in 0.00 W/m2
20:39 63.7 °F 33.3 °F 30.11 in SSE 1.0 mph 7.0 mph 32 % 0.00 in 0.00 W/m2
20:44 63.8 °F 33.4 °F 30.11 in SE 1.0 mph 8.0 mph 32 % 0.00 in 0.00 W/m2
20:49 63.7 °F 33.3 °F 30.11 in Calm   7.0 mph 32 % 0.00 in 0.00 W/m2
20:54 63.7 °F 33.3 °F 30.11 in SE 2.0 mph 7.0 mph 32 % 0.00 in 0.00 W/m2
20:59 63.7 °F 34.1 °F 30.11 in ESE 2.0 mph 9.0 mph 33 % 0.00 in 0.00 W/m2
21:04 63.7 °F 33.3 °F 30.10 in ESE 6.0 mph 8.0 mph 32 % 0.00 in 0.00 W/m2
21:09 63.7 °F 33.3 °F 30.10 in ESE 1.0 mph 8.0 mph 32 % 0.00 in 0.00 W/m2
21:14 63.8 °F 33.4 °F 30.10 in ESE 6.0 mph 8.0 mph 32 % 0.00 in 0.00 W/m2
21:19 63.8 °F 33.4 °F 30.10 in ESE 2.0 mph 9.0 mph 32 % 0.00 in 0.00 W/m2
21:24 63.8 °F 33.4 °F 30.10 in ESE 2.0 mph 11.0 mph 32 % 0.00 in 0.00 W/m2
21:29 63.8 °F 33.4 °F 30.11 in ESE 1.0 mph 11.0 mph 32 % 0.00 in 0.00 W/m2
21:34 63.8 °F 33.4 °F 30.11 in East 1.0 mph 11.0 mph 32 % 0.00 in 0.00 W/m2
21:39 63.8 °F 33.4 °F 30.11 in ESE 4.0 mph 11.0 mph 32 % 0.00 in 0.00 W/m2
21:44 63.8 °F 32.6 °F 30.11 in ESE 9.0 mph 11.0 mph 31 % 0.00 in 0.00 W/m2
21:49 63.7 °F 32.5 °F 30.11 in East 5.0 mph 11.0 mph 31 % 0.00 in 0.00 W/m2
21:54 63.7 °F 32.5 °F 30.11 in East 1.0 mph 8.0 mph 31 % 0.00 in 0.00 W/m2
21:59 63.6 °F 32.4 °F 30.11 in East 5.0 mph 11.0 mph 31 % 0.00 in 0.00 W/m2
22:04 63.6 °F 32.4 °F 30.10 in East 4.0 mph 11.0 mph 31 % 0.00 in 0.00 W/m2
22:06 63.6 °F 32.4 °F 30.11 in Calm   6.0 mph 31 % 0.00 in 0.00 W/m2
22:11 63.5 °F 32.3 °F 30.11 in East 6.0 mph 8.0 mph 31 % 0.00 in 0.00 W/m2
22:16 63.5 °F 31.5 °F 30.11 in East 2.0 mph 7.0 mph 30 % 0.00 in 0.00 W/m2
22:21 63.4 °F 31.5 °F 30.11 in ESE 4.0 mph 11.0 mph 30 % 0.00 in 0.00 W/m2
22:26 63.5 °F 31.5 °F 30.11 in East 4.0 mph 11.0 mph 30 % 0.00 in 0.00 W/m2
22:31 63.5 °F 31.5 °F 30.11 in ESE 8.0 mph 12.0 mph 30 % 0.00 in 0.00 W/m2
22:34 63.5 °F 31.5 °F 30.11 in ESE 4.0 mph 12.0 mph 30 % 0.00 in 0.00 W/m2
22:39 63.5 °F 31.5 °F 30.11 in Calm   11.0 mph 30 % 0.00 in 0.00 W/m2
22:44 63.5 °F 31.5 °F 30.11 in ESE 7.0 mph 9.0 mph 30 % 0.00 in 0.00 W/m2
22:49 63.5 °F 30.7 °F 30.11 in ESE 4.0 mph 8.0 mph 29 % 0.00 in 0.00 W/m2
22:54 63.5 °F 31.5 °F 30.11 in ESE 5.0 mph 11.0 mph 30 % 0.00 in 0.00 W/m2
22:59 63.4 °F 30.6 °F 30.11 in ESE 5.0 mph 8.0 mph 29 % 0.00 in 0.00 W/m2
23:04 63.4 °F 30.6 °F 30.12 in ESE 4.0 mph 9.0 mph 29 % 0.00 in 0.00 W/m2
23:09 63.4 °F 30.6 °F 30.12 in ESE 9.0 mph 11.0 mph 29 % 0.00 in 0.00 W/m2
23:14 63.3 °F 30.5 °F 30.12 in ESE 11.0 mph 11.0 mph 29 % 0.00 in 0.00 W/m2
23:19 63.2 °F 30.4 °F 30.13 in ESE 2.0 mph 8.0 mph 29 % 0.00 in 0.00 W/m2
23:24 63.2 °F 30.4 °F 30.13 in ESE 1.0 mph 8.0 mph 29 % 0.00 in 0.00 W/m2
23:29 63.1 °F 30.4 °F 30.13 in ESE 4.0 mph 7.0 mph 29 % 0.00 in 0.00 W/m2
23:35 63.0 °F 30.3 °F 30.13 in Calm   7.0 mph 29 % 0.00 in 0.00 W/m2
23:40 62.9 °F 31.0 °F 30.13 in ESE 4.0 mph 9.0 mph 30 % 0.00 in 0.00 W/m2
23:45 62.8 °F 30.9 °F 30.13 in Calm   12.0 mph 30 % 0.00 in 0.00 W/m2
23:50 62.7 °F 30.8 °F 30.13 in ESE 5.0 mph 11.0 mph 30 % 0.00 in 0.00 W/m2
23:55 62.5 °F 30.7 °F 30.13 in East 1.0 mph 14.0 mph 30 % 0.00 in 0.00 W/m2
Juneau County Weather
Compliments of Weather Underground - 4.5 mb
 WU-history PHP script courtesy of   Juneau County Weather.
powered by Cumulus v1.9.3 (1059)
Ambient Weather VWS v14.00
Top Contact Website Map Copyright © 2007 - 2018 Foresthillweather.com Never base important decisions on this or any weather information obtained from the Internet